Location: Asheville, NC
(35.6000°N, 82.5500°W)
Time: 17:47:11
(UTC-04:00)

SEEDS - Pass Details

Date: 03 January 2018
Orbit: 588 x 604 km, 97.5° (Epoch: 15 July)

Event Time Altitude Azimuth Distance (km) Brightness Sun altitude
Rises 06:35:09 0° 38° (NE) 2,836 ? -13.0°
Reaches altitude 10° 06:38:55 10° 73° (ENE) 1,923 ? -12.2°
Maximum altitude 06:40:13 11° 91° (E) 1,839 ? -12.0°
Drops below altitude 10° 06:41:30 10° 110° (ESE) 1,916 ? -11.7°
Sets 06:45:13 0° 145° (SE) 2,806 ? -11.0°
